Flag for Germany Weather past 2 weeks in Landshut, Bavaria, Germany

Now
32 °F

Chilly.


Feels Like: 27 °F
Forecast: 32 / 36 °F
Wind: 5 mph from Southwest

Location: Erding Airport

Current Time: Jan 28, 2015 at 7:52:06 PM

Latest Report: Jan 28, 2015 at 7:20 PM


Visibility: 3 mi

Pressure: 29.74 "Hg

Humidity: 93%

Dew point: 30 °F

Location of LandshutLocation

Historic Weather in Landshut — Graph

°F

Landshut temperature yesterday

Maximum temperature yesterday: 34 °F (at 4:20 AM)
Minimum temperature yesterday: 32 °F (at 12:20 AM)
Average temperature yesterday: 33 °F

Past Weeks' High & Low Weather Summary

 TemperatureHumidityPressure
High48 °F (Jan 14, 4:20 AM)100% (Jan 15, 1:20 AM)30.33 "Hg (Jan 15, 1:20 AM)
Low28 °F (Jan 16, 5:20 AM)40% (Jan 13, 7:20 PM)29.77 "Hg (Jan 15, 9:20 PM)
Average34 °F91%30.00 "Hg
* Reported Jan 13 6:20 PM — Jan 28 6:20 PM, Landshut, Weather by CustomWeather, © 2014

Note: Actual official high and low records may vary slightly from our data, if they occured in-between our weather recording intervals... More about our weather records

Advertising

Landshut weather history for previous 24 hours

 ConditionsComfort  
Time TempWeatherWind HumidityBarometerVisibility
6:20 PM
Jan 28
32 °FChilly.7 mph93%29.80 "Hg3 mi
5:20 PM32 °FChilly.8 mph87%29.83 "Hg3 mi
4:20 PM34 °FChilly.7 mph81%29.86 "Hg4 mi
3:20 PM37 °FPartly sunny.8 mph70%29.92 "HgN/A
2:20 PM36 °FPartly sunny.8 mph75%29.95 "HgN/A
1:20 PM36 °FPartly sunny.6 mph75%29.98 "HgN/A
12:20 PM36 °FPartly sunny.6 mph75%30.04 "HgN/A
11:20 AM34 °FChilly.8 mph81%30.07 "Hg3 mi
10:20 AM34 °FChilly.6 mph81%30.07 "Hg3 mi
9:20 AM32 °FBroken clouds.6 mph93%30.09 "HgN/A
8:20 AM30 °FPartly sunny.3 mph100%30.09 "HgN/A
7:20 AM32 °FPassing clouds.3 mph93%30.09 "HgN/A
6:20 AM32 °FChilly.6 mph93%30.09 "Hg2 mi
5:20 AM32 °FChilly.6 mph100%30.09 "Hg2 mi
4:20 AM32 °FChilly.8 mph100%30.12 "Hg2 mi
3:20 AM32 °FChilly.6 mph100%30.12 "Hg2 mi
2:20 AM32 °FChilly.5 mph100%30.12 "Hg2 mi
1:20 AM32 °FChilly.6 mph100%30.12 "Hg2 mi
12:20 AM32 °FChilly.6 mph100%30.12 "Hg2 mi
11:20 PM
Jan 27
32 °FChilly.7 mph100%30.12 "Hg2 mi
10:20 PM32 °FChilly.6 mph100%30.12 "Hg2 mi
9:20 PM32 °FChilly.5 mph100%30.12 "Hg3 mi
8:20 PM32 °FChilly.6 mph93%30.12 "Hg3 mi
7:20 PM32 °FChilly.8 mph100%30.12 "Hg1 mi
Weather by CustomWeather, © 2014

See weather overviewHow to use our weather pages